Tracking 34719 objects as of 12-Jul-2026
HD Live streaming from Space Station
objects crossing your sky now

ORBCOMM FM 35

Track ORBCOMM FM 35 now!
10-day predictions
ORBCOMM FM 35 is classified as:


NORAD ID: 25985
Int'l Code: 1999-065F
Perigee: 769.6 km
Apogee: 774.2 km
Inclination: 45.0 °
Period: 100.1 minutes
Semi major axis: 7142 km
RCS: 0.5674 m2 (medium)
Launch date: December 4, 1999
Source: ORBCOMM (ORB)
Launch site: AIR FORCE EASTERN TEST RANGE (AFETR)
Your satellite tracking list
Your tracking list is empty




NASA's NSSDC Master Catalog

Two Line Element Set (TLE):
1 25985U 99065F   26193.65031823  .00000335  00000-0  15615-3 0  9999
2 25985  45.0399  47.0047 0003188 180.3508 179.7339 14.38111550390974
Source of the keplerian elements: AFSPC